CW7104 Weather Reports


Display with metric or nautical units.
time (UTC)temp
F
wind
direction
speed
MPH
gust
MPH
rain 1hr
in
rain 24hr
in
rain mn
in
humidity
%
barometer
mb
20260903141404 84 199 0.0 0.0 0.00 0.00 0.00 71 1016.2
20260903140904 83 233 0.0 1.0 0.00 0.00 0.00 72 1016.2
20260903140404 82 210 0.0 0.0 0.00 0.00 0.00 73 1016.2
20260903135904 82 163 0.0 0.0 0.00 0.00 0.00 75 1016.2
20260903135404 81 163 0.0 0.0 0.00 0.00 0.00 75 1016.2
20260903134904 80 163 0.0 0.0 0.00 0.00 0.00 76 1016.2
20260903134404 80 163 0.0 0.0 0.00 0.00 0.00 77 1016.3
20260903133904 79 163 0.0 0.0 0.00 0.00 0.00 78 1016.4
20260903133403 79 163 0.0 0.0 0.00 0.00 0.00 79 1016.4
20260903132404 78 163 0.0 0.0 0.00 0.00 0.00 80 1016.4
20260903131904 78 167 0.0 0.0 0.00 0.00 0.00 81 1016.5
20260903131404 77 168 0.0 0.0 0.00 0.00 0.00 82 1016.5
20260903130904 77 181 0.0 0.0 0.00 0.00 0.00 82 1016.5
20260903130404 76 182 0.0 0.0 0.00 0.00 0.00 82 1016.4
20260903125904 76 183 0.0 0.0 0.00 0.00 0.00 82 1016.4
20260903124904 75 217 0.0 0.0 0.00 0.00 0.00 82 1016.5
20260903124404 74 217 0.0 0.0 0.00 0.00 0.00 82 1016.5
20260903123904 74 217 0.0 0.0 0.00 0.00 0.00 82 1016.5
20260903123404 74 217 0.0 0.0 0.00 0.00 0.00 82 1016.5
20260903122904 73 225 0.0 0.0 0.00 0.00 0.00 82 1016.4
20260903122403 73 225 0.0 0.0 0.00 0.00 0.00 82 1016.4
20260903121904 73 225 0.0 0.0 0.00 0.00 0.00 82 1016.4
20260903120903 72 225 0.0 0.0 0.00 0.00 0.00 82 1016.3
20260903115903 72 225 0.0 0.0 0.00 0.00 0.00 82 1016.2
20260903115403 72 225 0.0 0.0 0.00 0.00 0.00 82 1016.2
20260903114904 72 225 0.0 0.0 0.00 0.00 0.00 82 1016.2
20260903114404 72 225 0.0 0.0 0.00 0.00 0.00 82 1016.1
20260903113903 71 225 0.0 0.0 0.00 0.00 0.00 82 1016.1
20260903112904 71 225 0.0 0.0 0.00 0.00 0.00 82 1016.1
20260903112404 72 225 0.0 0.0 0.00 0.00 0.00 82 1016.1
20260903111903 72 225 0.0 0.0 0.00 0.00 0.00 82 1016.1
20260903111403 71 225 0.0 0.0 0.00 0.00 0.00 82 1016.0
20260903110903 71 225 0.0 0.0 0.00 0.00 0.00 82 1016.0
20260903103904 72 225 0.0 0.0 0.00 0.00 0.00 82 1015.9
20260903103404 72 225 0.0 0.0 0.00 0.00 0.00 82 1015.9
20260903102904 72 225 0.0 0.0 0.00 0.00 0.00 82 1015.9
20260903102403 72 225 0.0 0.0 0.00 0.00 0.00 82 1015.9
20260903101904 72 225 0.0 0.0 0.00 0.00 0.00 82 1015.8
20260903101404 72 225 0.0 0.0 0.00 0.00 0.00 82 1015.8
20260903100903 72 225 0.0 0.0 0.00 0.00 0.00 82 1015.7
20260903100404 72 225 0.0 0.0 0.00 0.00 0.00 82 1015.7
20260903095403 72 225 0.0 0.0 0.00 0.00 0.00 82 1015.7
20260903094904 72 225 0.0 0.0 0.00 0.00 0.00 82 1015.6
20260903094403 72 225 0.0 0.0 0.00 0.00 0.00 82 1015.6
20260903093904 72 225 0.0 0.0 0.00 0.00 0.00 82 1015.6
20260903093404 72 225 0.0 0.0 0.00 0.00 0.00 82 1015.5
20260903092905 72 225 0.0 0.0 0.00 0.00 0.00 82 1015.6
20260903092404 72 225 0.0 0.0 0.00 0.00 0.00 82 1015.5
20260903091904 72 225 0.0 0.0 0.00 0.00 0.00 82 1015.6
20260903091403 72 225 0.0 0.0 0.00 0.00 0.00 82 1015.5
20260903090905 73 225 0.0 0.0 0.00 0.00 0.00 82 1015.4
20260903090405 73 225 0.0 0.0 0.00 0.00 0.00 81 1015.4
20260903085905 73 225 0.0 0.0 0.00 0.00 0.00 81 1015.4
20260903085405 73 225 0.0 0.0 0.00 0.00 0.00 82 1015.4
20260903084905 73 225 0.0 0.0 0.00 0.00 0.00 82 1015.3
20260903084406 73 225 0.0 0.0 0.00 0.00 0.00 82 1015.3
20260903083905 73 225 0.0 0.0 0.00 0.00 0.00 81 1015.3
20260903083405 73 225 0.0 0.0 0.00 0.00 0.00 81 1015.3
20260903082905 73 225 0.0 0.0 0.00 0.00 0.00 81 1015.2
20260903082405 73 225 0.0 0.0 0.00 0.00 0.00 81 1015.2
20260903081906 73 225 0.0 0.0 0.00 0.00 0.00 81 1015.2
20260903080905 73 225 0.0 0.0 0.00 0.00 0.00 81 1015.3
20260903080405 73 225 0.0 0.0 0.00 0.00 0.00 81 1015.3
20260903075905 73 225 0.0 0.0 0.00 0.00 0.00 81 1015.3
20260903075405 73 225 0.0 0.0 0.00 0.00 0.00 81 1015.3
20260903073906 74 225 0.0 0.0 0.00 0.00 0.00 81 1015.1
20260903073405 74 225 0.0 0.0 0.00 0.00 0.00 81 1015.1
20260903072905 74 225 0.0 0.0 0.00 0.00 0.00 81 1015.1
20260903071405 74 225 0.0 0.0 0.00 0.00 0.00 81 1015.0
20260903070405 74 225 0.0 0.0 0.00 0.00 0.00 80 1015.0
20260903065405 74 225 0.0 0.0 0.00 0.00 0.00 80 1015.0
20260903064905 74 225 0.0 0.0 0.00 0.00 0.00 80 1015.0
20260903064405 74 225 0.0 0.0 0.00 0.00 0.00 80 1015.0
20260903063905 74 225 0.0 0.0 0.00 0.00 0.00 80 1015.1
20260903063405 74 225 0.0 0.0 0.00 0.00 0.00 80 1015.1
20260903062905 74 225 0.0 0.0 0.00 0.00 0.00 80 1015.1
20260903062405 74 225 0.0 0.0 0.00 0.00 0.00 80 1015.2
20260903061905 74 225 0.0 0.0 0.00 0.00 0.00 80 1015.2
20260903061405 75 225 0.0 0.0 0.00 0.00 0.00 79 1015.2
20260903060905 75 225 0.0 0.0 0.00 0.00 0.00 79 1015.2
20260903060405 75 225 0.0 0.0 0.00 0.00 0.00 79 1015.1
20260903055905 75 225 0.0 0.0 0.00 0.00 0.00 79 1015.1
20260903055405 75 225 0.0 0.0 0.00 0.00 0.00 79 1015.2
20260903054905 76 225 0.0 0.0 0.00 0.00 0.00 78 1015.1
20260903054405 76 225 0.0 0.0 0.00 0.00 0.00 78 1015.1
20260903053905 76 225 0.0 0.0 0.00 0.00 0.00 77 1015.2
20260903053404 77 225 0.0 0.0 0.00 0.00 0.00 77 1015.2
20260903052405 77 225 0.0 0.0 0.00 0.00 0.00 77 1015.1
20260903051405 78 225 0.0 0.0 0.00 0.00 0.00 77 1015.1
20260903050405 78 225 0.0 0.0 0.00 0.00 0.00 77 1015.1
20260903045905 78 225 0.0 0.0 0.00 0.00 0.00 77 1015.1
20260903044905 78 225 0.0 0.0 0.00 0.00 0.00 76 1015.1
20260903044405 79 225 0.0 0.0 0.00 0.00 0.00 76 1015.1
20260903043904 79 225 0.0 0.0 0.00 0.00 0.00 75 1015.1
20260903043405 79 225 0.0 0.0 0.00 0.00 0.00 75 1015.0
20260903042905 79 225 0.0 0.0 0.00 0.00 0.00 75 1014.9
20260903042405 79 225 0.0 0.0 0.00 0.00 0.00 74 1015.0
20260903041405 79 225 0.0 0.0 0.00 0.00 0.00 74 1015.0
20260903040904 80 225 0.0 0.0 0.00 0.00 0.00 74 1015.1
20260903040405 80 225 0.0 0.0 0.00 0.00 0.00 73 1015.1
20260903035905 80 225 0.0 0.0 0.00 0.00 0.00 73 1015.0
20260903035404 80 225 0.0 0.0 0.00 0.00 0.00 73 1015.0
20260903034405 80 225 0.0 0.0 0.00 0.00 0.00 72 1015.0
20260903033905 80 225 0.0 0.0 0.00 0.00 0.00 72 1015.0
20260903033405 80 225 0.0 0.0 0.00 0.00 0.00 72 1014.9
20260903032904 80 225 0.0 0.0 0.00 0.00 0.00 72 1015.0
20260903032405 80 225 0.0 0.0 0.00 0.00 0.00 72 1015.0
20260903031905 80 225 0.0 0.0 0.00 0.00 0.00 72 1014.9
20260903031405 80 225 0.0 0.0 0.00 0.00 0.00 72 1015.0
20260903030905 80 225 0.0 0.0 0.00 0.00 0.00 71 1015.1
20260903030405 81 225 0.0 0.0 0.00 0.00 0.00 71 1015.1
20260903024405 82 225 0.0 0.0 0.00 0.00 0.00 69 1014.9
20260903023905 82 225 0.0 0.0 0.00 0.00 0.00 68 1014.9
20260903023405 82 225 0.0 0.0 0.00 0.00 0.00 67 1015.0
20260903022905 83 225 0.0 0.0 0.00 0.00 0.00 66 1015.0
20260903022404 83 225 0.0 0.0 0.00 0.00 0.00 66 1014.9
20260903021905 83 225 0.0 0.0 0.00 0.00 0.00 66 1015.0
20260903021405 83 225 0.0 0.0 0.00 0.00 0.00 66 1014.9
20260903020404 84 225 0.0 0.0 0.00 0.00 0.00 65 1014.9
20260903015905 84 225 0.0 0.0 0.00 0.00 0.00 65 1014.9
20260903015405 84 225 0.0 0.0 0.00 0.00 0.00 64 1014.9
20260903014405 85 225 0.0 0.0 0.00 0.00 0.00 63 1014.8
20260903013904 85 225 0.0 0.0 0.00 0.00 0.00 63 1014.7
20260903013405 85 225 0.0 0.0 0.00 0.00 0.00 62 1014.7
20260903012904 86 225 0.0 0.0 0.00 0.00 0.00 61 1014.6
20260903012404 86 225 0.0 0.0 0.00 0.00 0.00 60 1014.6
20260903011905 87 225 0.0 0.0 0.00 0.00 0.00 60 1014.6
20260903011404 87 225 0.0 0.0 0.00 0.00 0.00 59 1014.6
20260903010905 87 225 0.0 0.0 0.00 0.00 0.00 58 1014.7
20260903005404 89 225 0.0 0.0 0.00 0.00 0.00 55 1014.5
20260903004905 89 225 0.0 0.0 0.00 0.00 0.00 55 1014.5
20260903004405 89 225 0.0 0.0 0.00 0.00 0.00 54 1014.5
20260903003404 90 225 0.0 0.0 0.00 0.00 0.00 53 1014.6
20260903002904 90 225 0.0 0.0 0.00 0.00 0.00 53 1014.6
20260903002405 91 225 0.0 0.0 0.00 0.00 0.00 52 1014.6
20260903001904 91 225 0.0 0.0 0.00 0.00 0.00 52 1014.5
20260903001405 91 225 0.0 0.0 0.00 0.00 0.00 51 1014.5
20260903000905 92 177 0.0 0.0 0.00 0.00 0.00 50 1014.6
20260903000405 92 227 0.0 0.0 0.00 0.00 0.00 49 1014.6
20260902235905 93 227 0.0 2.0 0.00 0.00 0.00 49 1014.6
20260902235405 93 227 0.0 0.0 0.00 0.00 0.00 48 1014.6
20260902234904 94 227 0.0 0.0 0.00 0.00 0.00 47 1014.7
20260902234404 94 182 0.0 0.0 0.00 0.00 0.00 46 1014.7
20260902233905 95 216 0.0 5.0 0.00 0.00 0.00 46 1014.5
20260902233405 95 207 0.0 0.0 0.00 0.00 0.00 46 1014.5
20260902232404 95 182 0.0 3.0 0.00 0.00 0.00 45 1014.4
20260902231904 95 220 1.0 7.0 0.00 0.00 0.00 45 1014.5
20260902231405 95 200 0.0 7.0 0.00 0.00 0.00 45 1014.5
20260902230905 95 220 0.0 5.0 0.00 0.00 0.00 45 1014.6
20260902225904 95 176 0.0 7.0 0.00 0.00 0.00 44 1014.6
20260902225404 95 190 1.0 6.0 0.00 0.00 0.00 44 1014.5
20260902224405 96 232 3.0 10.0 0.00 0.00 0.00 43 1014.5
20260902223404 97 235 0.0 0.0 0.00 0.00 0.00 41 1014.6
20260902222905 98 199 0.0 5.0 0.00 0.00 0.00 41 1014.6
20260902222405 98 161 3.0 8.0 0.00 0.00 0.00 40 1014.6
20260902220905 100 211 1.0 6.0 0.00 0.00 0.00 40 1014.6
20260902220404 100 196 2.0 12.0 0.00 0.00 0.00 40 1014.7
20260902215904 100 195 0.0 6.0 0.00 0.00 0.00 39 1014.6
20260902215404 100 217 2.0 7.0 0.00 0.00 0.00 38 1014.7
20260902214905 100 222 0.0 6.0 0.00 0.00 0.00 39 1014.7
20260902214405 100 212 3.0 10.0 0.00 0.00 0.00 39 1014.7
20260902213904 100 220 1.0 5.0 0.00 0.00 0.00 36 1014.8
20260902213404 100 165 2.0 8.0 0.00 0.00 0.00 35 1014.8
20260902212905 100 214 3.0 9.0 0.00 0.00 0.00 36 1014.8
20260902212405 100 175 1.0 6.0 0.00 0.00 0.00 37 1014.8
20260902211905 100 187 3.0 9.0 0.00 0.00 0.00 37 1014.8
20260902211405 100 205 2.0 8.0 0.00 0.00 0.00 37 1014.9
20260902210405 101 196 3.0 10.0 0.00 0.00 0.00 38 1014.9
20260902205404 101 164 1.0 8.0 0.00 0.00 0.00 38 1015.0
20260902204905 101 176 1.0 7.0 0.00 0.00 0.00 36 1015.0
20260902204405 101 231 1.0 6.0 0.00 0.00 0.00 37 1015.0
20260902203904 101 149 0.0 6.0 0.00 0.00 0.00 38 1015.1
20260902203404 101 174 2.0 12.0 0.00 0.00 0.00 40 1015.1
20260902202905 101 155 2.0 10.0 0.00 0.00 0.00 39 1015.1
20260902202404 100 172 2.0 7.0 0.00 0.00 0.00 39 1015.2
20260902201904 100 182 1.0 7.0 0.00 0.00 0.00 40 1015.2
20260902201404 100 198 3.0 12.0 0.00 0.00 0.00 40 1015.3
20260902200404 100 148 2.0 9.0 0.00 0.00 0.00 40 1015.4
20260902195904 100 156 2.0 8.0 0.00 0.00 0.00 41 1015.4
20260902195405 100 126 1.0 12.0 0.00 0.00 0.00 41 1015.4
20260902194905 100 167 2.0 12.0 0.00 0.00 0.00 41 1015.5
20260902194404 100 137 3.0 7.0 0.00 0.00 0.00 41 1015.6
20260902193904 100 150 3.0 12.0 0.00 0.00 0.00 42 1015.6
20260902193405 100 168 3.0 12.0 0.00 0.00 0.00 41 1015.6
20260902192404 99 148 3.0 9.0 0.00 0.00 0.00 42 1015.8
20260902191904 100 187 3.0 10.0 0.00 0.00 0.00 42 1015.8
20260902191404 100 164 3.0 10.0 0.00 0.00 0.00 43 1015.9
20260902190904 100 209 2.0 12.0 0.00 0.00 0.00 42 1016.0
20260902190404 99 229 2.0 10.0 0.00 0.00 0.00 43 1016.0
20260902185404 99 250 1.0 9.0 0.00 0.00 0.00 42 1016.1
20260902184904 99 148 3.0 12.0 0.00 0.00 0.00 41 1016.1
20260902184404 100 177 3.0 8.0 0.00 0.00 0.00 42 1016.2
20260902183904 99 205 4.0 9.0 0.00 0.00 0.00 42 1016.2
20260902183404 99 210 3.0 13.0 0.00 0.00 0.00 42 1016.3
20260902182904 99 237 2.0 6.0 0.00 0.00 0.00 45 1016.3
20260902182405 99 216 1.0 7.0 0.00 0.00 0.00 44 1016.3
20260902181904 98 234 3.0 8.0 0.00 0.00 0.00 43 1016.4
20260902181404 98 192 1.0 9.0 0.00 0.00 0.00 45 1016.4
20260902180904 98 180 4.0 9.0 0.00 0.00 0.00 44 1016.4
20260902180405 99 187 3.0 10.0 0.00 0.00 0.00 45 1016.4
20260902175904 99 159 1.0 7.0 0.00 0.00 0.00 45 1016.4
20260902175404 98 179 1.0 9.0 0.00 0.00 0.00 45 1016.5
20260902174904 98 171 5.0 12.0 0.00 0.00 0.00 44 1016.5
20260902174404 98 245 3.0 8.0 0.00 0.00 0.00 44 1016.6
20260902173904 98 178 2.0 6.0 0.00 0.00 0.00 44 1016.7
20260902173404 98 205 2.0 10.0 0.00 0.00 0.00 45 1016.7
20260902172904 98 240 3.0 8.0 0.00 0.00 0.00 45 1016.8
20260902172404 98 232 1.0 9.0 0.00 0.00 0.00 47 1016.8
20260902171904 98 143 2.0 10.0 0.00 0.00 0.00 47 1016.9
20260902171404 97 243 2.0 6.0 0.00 0.00 0.00 47 1016.9
20260902170904 97 188 2.0 7.0 0.00 0.00 0.00 47 1017.0
20260902170404 97 221 1.0 7.0 0.00 0.00 0.00 48 1017.1
20260902165904 97 265 1.0 9.0 0.00 0.00 0.00 47 1017.1
20260902164904 96 223 0.0 0.0 0.00 0.00 0.00 51 1017.1
20260902164404 96 273 0.0 6.0 0.00 0.00 0.00 48 1017.2
20260902163404 96 169 1.0 6.0 0.00 0.00 0.00 51 1017.3
20260902162904 96 180 1.0 7.0 0.00 0.00 0.00 50 1017.4
20260902162404 96 237 0.0 7.0 0.00 0.00 0.00 50 1017.4
20260902161904 95 190 1.0 7.0 0.00 0.00 0.00 51 1017.5
20260902161404 95 161 1.0 7.0 0.00 0.00 0.00 52 1017.5
20260902160904 95 245 5.0 9.0 0.00 0.00 0.00 51 1017.4
20260902160404 95 140 5.0 7.0 0.00 0.00 0.00 52 1017.5
20260902155904 95 171 0.0 6.0 0.00 0.00 0.00 53 1017.5
20260902155404 94 189 1.0 6.0 0.00 0.00 0.00 52 1017.6
20260902154908 94 189 1.0 8.0 0.00 0.00 0.00 53 1017.7
20260902153904 93 193 4.0 7.0 0.00 0.00 0.00 54 1017.7
20260902153404 93 172 1.0 7.0 0.00 0.00 0.00 56 1017.7
20260902152904 93 230 2.0 8.0 0.00 0.00 0.00 54 1017.8
20260902152404 92 194 0.0 3.0 0.00 0.00 0.00 55 1017.7
20260902151904 92 165 0.0 3.0 0.00 0.00 0.00 56 1017.8
20260902151404 91 230 1.0 7.0 0.00 0.00 0.00 57 1017.7
20260902145904 89 183 3.0 7.0 0.00 0.00 0.00 60 1017.8
20260902144904 88 200 0.0 6.0 0.00 0.00 0.00 62 1017.7
20260902144404 87 225 0.0 0.0 0.00 0.00 0.00 63 1017.8
20260902143404 86 200 2.0 8.0 0.00 0.00 0.00 65 1017.8
20260902142404 85 200 2.0 7.0 0.00 0.00 0.00 68 1017.9